Location: Vienna
(48.2082°N, 16.3738°E)
Time: 14:42:48
(UTC+01:00)

ISS - Pass Details

Date: 28 November 2019
Orbit: 411 x 421 km, 51.6° (Epoch: 09 December)

Event Time Altitude Azimuth Distance (km) Brightness Sun altitude
Rises 16:48:17 0° 238° (WSW) 2,345 2.4 -7.2°
Reaches altitude 10° 16:50:22 10° 236° (SW) 1,487 0.7 -7.5°
Maximum altitude 16:53:41 67° 154° (SSE) 455 -3.6 -8.1°
Enters shadow 16:56:46 12° 71° (ENE) 1,395 -1.8 -8.5°
